Home   Weather   Labrador City   Past weeks

Flag for Canada Past Weather in Labrador City, Newfoundland and Labrador, Canada — Yesterday and Last 2 Weeks

Now
55 °F

Scattered clouds.


Feels Like: 54 °F
Forecast: 40 / 54 °F
Wind: 7 mph from Northwest

Location: Wabush Lake

Current Time: Sep 30, 2016 at 5:33:20 PM

Latest Report: Sep 30, 2016 at 5:00 PM


Visibility: 15 mi

Pressure: 30.39 "Hg (28.43 "Hg at 558m altitude)

Humidity: 63%

Dew Point: 43 °F

Location of Labrador CityLocation

Past Weather in Labrador City — Graph

°F

Labrador City Temperature Yesterday

Maximum temperature yesterday: 55 °F (at 2:00 PM)
Minimum temperature yesterday: 25 °F (at 5:00 AM)
Average temperature yesterday: 42 °F

High & Low Weather Summary for the Past Weeks

 TemperatureHumidityPressure
High61 °F (Sep 16, 5:00 PM)100% (Sep 28, 1:00 AM)30.60 "Hg (Sep 28, 1:00 AM)
Low23 °F (Sep 28, 4:57 AM)35% (Sep 28, 6:00 PM)29.70 "Hg (Sep 21, 3:00 AM)
Average42 °F80%30.10 "Hg
* Reported Sep 15 4:00 PM — Sep 30 4:00 PM, Labrador City, Weather by CustomWeather, © 2016

Note: Actual official high and low records may vary slightly from our data, if they occured in-between our weather recording intervals... More about our weather records

Advertising

Labrador City Weather History for the Previous 24 Hours

Scroll right to see more
 ConditionsComfort  
Time TempWeatherWind HumidityBarometerVisibility
4:00 PM
Fri, Sep 30
59 °FBroken clouds.9 mph55%30.39 "Hg15 mi
3:00 PM55 °FBroken clouds.8 mph63%30.40 "Hg15 mi
2:00 PM55 °FBroken clouds.9 mph63%30.42 "Hg15 mi
1:00 PM57 °FScattered showers. Broken clouds.7 mph63%30.43 "Hg15 mi
12:00 PM54 °FSprinkles. Partly sunny.7 mph72%30.44 "Hg15 mi
11:00 AM50 °FSprinkles. Broken clouds.7 mph82%30.45 "Hg15 mi
10:00 AM48 °FBroken clouds.9 mph87%30.46 "Hg15 mi
9:00 AM46 °FOvercast.5 mph93%30.47 "Hg15 mi
8:00 AM45 °FPartly cloudy.5 mph93%30.46 "Hg15 mi
7:00 AM46 °FMostly cloudy.8 mph87%30.47 "Hg15 mi
6:00 AM46 °FOvercast.8 mph87%30.47 "Hg15 mi
5:00 AM46 °FMostly cloudy.8 mph87%30.46 "Hg9 mi
4:00 AM46 °FMostly cloudy.6 mph87%30.47 "Hg9 mi
3:00 AM46 °FOvercast.5 mph87%30.47 "Hg9 mi
2:00 AM48 °FMostly cloudy.2 mph82%30.49 "Hg9 mi
1:00 AM48 °FOvercast.3 mph82%30.49 "Hg9 mi
12:00 AM46 °FMostly cloudy.2 mph87%30.50 "Hg9 mi
11:55 PM
Thu, Sep 29
46 °FMostly cloudy.3 mph87%30.50 "Hg9 mi
11:00 PM48 °FOvercast.3 mph82%30.51 "Hg9 mi
10:00 PM48 °FPassing clouds.3 mph82%30.52 "Hg15 mi
9:00 PM48 °FPassing clouds.3 mph82%30.53 "Hg15 mi
8:00 PM48 °FOvercast.7 mph76%30.53 "Hg15 mi
7:00 PM50 °FPartly sunny.9 mph71%30.53 "Hg15 mi
6:00 PM52 °FPartly sunny.6 mph72%30.52 "Hg15 mi
5:00 PM54 °FBroken clouds.12 mph67%30.53 "Hg15 mi
Weather by CustomWeather, © 2016

See weather overviewHow to use our weather pages